Location: Malvern Wells
(52.0667°N, 2.3167°W)
Time: 06:19:19
(UTC+00:00)

Daily predictions for brighter satellites

Satellite Brightness Start Highest point End
(mag) Time Altitude Azimuth Time Altitude Azimuth Time Altitude Azimuth
CZ-4B R/B 3.3 17:12:21 10° SSE 17:17:57 87° ENE 17:23:29 10° NNW
Cosmos 1655 Rocket 4.4 17:13:17 10° NNW 17:19:43 77° W 17:26:06 10° S
Okean-O 3.8 17:17:10 10° ESE 17:20:39 23° ENE 17:24:08 10° N
Cosmos 1656 Rocket 4.1 17:15:49 10° SW 17:21:23 68° WNW 17:27:05 10° NNE
Cosmos 1809 Rocket 4.5 17:15:39 10° N 17:21:51 80° E 17:27:57 10° SSE
NOSS 2-2 (E) 4.4 17:16:50 10° NW 17:22:05 81° NE 17:29:28 10° SE
AQUARIUS 4.1 17:18:00 10° SSE 17:22:29 75° ENE 17:27:00 10° NNW
Cosmos 1400 Rocket 4.2 17:22:29 10° SE 17:25:28 20° E 17:28:26 10° NE
Meteor 1-16 Rocket 4.2 17:20:38 10° S 17:26:15 89° ESE 17:31:44 10° NNE
Cosmos 2227 Rocket 2.6 17:21:14 10° NNW 17:26:40 45° NE 17:32:05 10° ESE
Cosmos 1908 3.2 17:23:21 10° S 17:27:12 84° E 17:31:06 10° NNE
Cosmos 2266 Rocket 4.2 17:21:03 10° NNW 17:27:18 84° W 17:33:38 10° S
Cosmos 2058 4.4 17:25:00 10° NNE 17:27:44 17° ENE 17:30:27 10° ESE
H-2A R/B 3.4 17:24:44 10° ESE 17:28:44 21° NE 17:32:45 10° N
Cosmos 304 Rocket 4.4 17:24:21 10° SW 17:29:04 60° WNW 17:33:50 10° NNE
Cosmos 1892 4.0 17:26:14 10° NNE 17:29:14 21° ENE 17:32:13 10° ESE
CZ-4 R/B 2.5 17:27:52 10° ESE 17:30:51 22° ENE 17:33:50 10° NNE
GEOS 3 Rocket 4.3 17:26:00 10° E 17:30:59 41° NNE 17:36:01 10° NW
Cosmos 2263 Rocket 3.8 17:27:45 10° NNW 17:31:29 17° NNE 17:35:13 10° ENE
Cosmos 1408 4.2 17:31:07 10° NNE 17:33:21 15° ENE 17:35:36 10° ESE
BREEZE-M DEB (TANK) 4.0 17:30:14 10° WSW 17:33:42 78° SSE 17:46:13 10° ENE
Cosmos 1356 Rocket 3.9 17:29:39 10° SSW 17:33:56 68° WNW 17:38:14 10° N
CZ-4C R/B 3.8 17:31:16 10° N 17:34:27 51° WNW 17:37:41 10° SSW
NOSS 3-4 (A) 4.4 17:31:31 10° NW 17:37:36 38° NNE 17:44:11 10° E
NOSS 3-4 (C) 4.4 17:31:38 10° NW 17:37:42 38° NNE 17:44:16 10° E
CZ-4C R/B 3.7 17:32:30 10° NW 17:37:58 31° N 17:44:22 10° ENE
NOSS 2-2 (D) 4.4 17:34:28 10° NW 17:39:41 86° NE 17:46:58 10° SE
NOAA 12 4.4 17:34:30 10° SSE 17:39:48 78° WSW 17:45:11 10° NNW
Cosmos 1953 Rocket 3.6 17:35:56 10° N 17:40:19 63° ENE 17:44:43 10° SSE
Cosmos 1300 3.0 17:40:02 10° SSE 17:43:40 44° E 17:47:19 10° NNE
SL-4 R/B 1.6 17:42:20 10° W 17:45:51 85° S 17:49:04 13° E
Cosmos 1697 Rocket 4.2 17:43:51 10° SE 17:47:02 16° E 17:49:37 12° ENE
Cosmos 2058 Rocket 3.7 17:43:01 10° SSE 17:47:04 34° E 17:51:10 10° NNE
Cosmos 1331 Rocket 4.0 17:42:14 10° S 17:47:18 62° ESE 17:52:25 10° NNE
Cosmos 1346 Rocket 3.8 17:44:46 10° N 17:48:09 26° ENE 17:51:31 10° ESE
USA 305 2.9 17:45:14 10° WNW 17:49:34 81° NNE 17:53:27 13° ESE
IRS-1C Rocket 4.1 17:44:24 10° SSE 17:49:35 62° ENE 17:54:49 10° N
CZ-2D R/B 3.7 17:46:05 10° SE 17:49:39 39° ENE 17:53:13 10° N
Cosmos 1825 3.8 17:47:53 10° NNE 17:50:21 16° ENE 17:51:37 14° E
SeaSat 1 3.5 17:46:27 11° E 17:50:26 27° NE 17:54:34 10° NNW
Cosmos 1953 4.2 17:47:35 10° SW 17:51:11 33° WNW 17:54:50 10° N
Cosmos 44 3.5 17:50:10 10° SSW 17:54:31 48° ESE 17:59:04 10° NE
USA 306 2.9 17:51:39 10° WNW 17:55:58 84° NNE 17:59:35 14° ESE
Cosmos 1315 Rocket 4.4 17:54:23 10° ESE 17:56:20 15° E 17:56:20 15° E
NOAA 11 4.2 17:51:38 10° SSE 17:57:05 86° WSW 18:02:34 10° NNW
USA 215 3.5 17:51:39 12° E 17:57:34 59° N 18:03:58 10° WNW
SAR-Lupe-4 3.8 17:54:56 10° NNE 17:58:26 47° E 18:01:53 10° S
ERS-2 2.0 17:54:54 10° NNE 17:58:34 85° ESE 18:02:13 10° SSW
ATLAS 2AS CENTAUR R/B 3.5 17:52:25 10° NW 17:59:43 41° NNE 18:05:16 16° E
BREEZE-M R/B 3.4 17:56:19 10° W 17:59:47 68° S 18:05:18 15° E
Cosmos 968 Rocket 3.5 17:57:08 10° NNW 18:02:20 59° ENE 18:07:27 10° SE
Cosmos 1340 2.6 17:59:30 10° N 18:03:16 63° ENE 18:07:01 10° SSE
Cosmos 2297 Rocket 2.2 18:01:01 10° NNW 18:06:44 89° ENE 18:12:25 10° SSE
COSMO-SKYMED 1 2.7 18:02:56 10° NNE 18:07:12 49° E 18:11:24 10° S
Cosmos 2369 Rocket 4.0 18:02:52 10° W 18:07:39 27° NW 18:12:30 10° NNE
MOS 1 Rocket 4.4 18:04:03 10° NE 18:07:41 22° E 18:11:27 10° SE
Cosmos 1076 Rocket 4.3 18:04:30 10° N 18:08:15 29° ENE 18:11:35 12° SE
H-2A R/B 3.5 18:05:01 10° N 18:08:55 38° WNW 18:12:45 10° SW
In-Cosmos 22 Rocket 4.0 18:04:00 10° N 18:09:22 70° ENE 18:14:47 10° SSE
Aureole 3 Rocket 3.4 18:08:31 10° S 18:12:35 58° E 18:18:17 10° NNE
Cosmos 1110 Rocket 4.2 18:10:45 10° SSW 18:15:59 76° WNW 18:21:15 10° NNE
SAR-Lupe-1 3.9 18:12:43 10° NNE 18:16:20 70° ESE 18:19:55 10° S
S3M 4.3 18:11:08 10° SSE 18:16:44 40° E 18:22:25 10° NNE
CSL-04 Debris 4.4 18:11:59 10° SE 18:17:09 46° ENE 18:22:22 10° N
Cosmos 1302 Rocket 4.0 18:13:07 10° S 18:18:18 61° ESE 18:23:32 10° NNE
SL-08 ROCKET BODY 4.4 18:12:58 10° N 18:19:01 63° ENE 18:25:08 10° SSE
Lacrosse 5 2.4 18:15:26 10° WNW 18:20:22 48° N 18:23:30 21° ENE
FALCON 9 DEB 3.0 18:17:13 10° W 18:20:39 79° N 18:22:07 32° E
FALCON 9 DEB 3.6 18:19:37 10° SW 18:22:40 39° SSE 18:23:30 32° ESE
ERBS 3.4 18:19:38 10° WNW 18:22:44 33° N 18:24:02 24° NE
Cosmos 1486 Rocket 4.0 18:17:29 10° NNW 18:22:52 84° ENE 18:28:12 10° SSE
Cosmos 292 Rocket 3.8 18:18:38 10° SSW 18:23:26 88° WNW 18:28:19 10° NNE
Okean O Rocket 3.9 18:19:42 10° SSW 18:23:27 28° W 18:27:14 10° NW
YAOGAN 1 2.5 18:20:27 10° SSE 18:24:42 62° ENE 18:29:00 10° N
Aureole 3 2.4 18:23:07 10° S 18:26:11 77° E 18:29:10 10° NNE
FALCON 9 DEB 3.5 18:23:47 10° SW 18:26:50 42° SSE 18:27:30 36° ESE
ADEOS Rocket 4.4 18:22:36 10° N 18:28:29 44° WNW 18:34:57 10° SW
SKYMED 3 4.5 18:26:54 10° NNE 18:31:17 83° ESE 18:35:37 10° SSW
Cosmos 1812 Rocket 4.5 18:27:42 10° SSE 18:35:45 - NNE 18:30:36 27° ESE
Cosmos 1455 3.1 18:28:47 10° SSE 18:31:13 28° ESE 18:31:13 28° ESE
Meteor 2-8 Rocket 4.4 18:26:21 10° S 18:32:28 79° E 18:38:38 10° NNE
Cosmos 1503 Rocket 4.0 18:27:29 10° NNW 18:32:41 63° ENE 18:37:11 14° SE
CZ-2C R/B 3.2 18:29:08 10° SSE 18:34:54 76° ENE 18:40:30 10° NNW
Cosmos 1726 Rocket 4.2 18:31:24 10° SSW 18:35:41 57° WNW 18:40:03 10° N
Cosmos 2219 3.9 18:31:22 10° NW 18:37:00 57° WSW 18:42:37 10° S
CZ-4B R/B 3.0 18:34:08 10° N 18:37:08 34° WNW 18:40:02 10° SW
FALCON 9 DEB 3.2 18:35:45 10° SW 18:38:54 48° SSE 18:39:09 47° SE
USA 307 3.0 18:34:39 10° WNW 18:38:56 70° SSW 18:40:52 31° SE
Cosmos 1939 Rocket 4.0 18:37:46 10° S 18:41:35 45° W 18:45:22 10° NNW
Cosmos 1943 Rocket 4.5 18:38:44 10° WNW 18:41:58 15° NNW 18:45:11 10° N
Geosat FO 4.5 18:41:07 36° SE 18:42:30 71° NE 18:45:59 10° NNW
USA 308 3.1 18:39:30 10° WNW 18:43:45 67° SSW 18:45:31 34° SE
Cosmos 1354 Rocket 3.9 18:39:00 10° NNW 18:44:15 68° ENE 18:47:53 20° SE
Meteor 2-10 Rocket 3.5 18:40:22 10° S 18:45:33 59° E 18:50:35 10° NNE
Cosmos 2082 3.6 18:40:01 10° NNW 18:45:49 85° ENE 18:50:45 14° SSE
Cosmos 1553 Rocket 3.9 18:39:47 10° S 18:46:09 83° E 18:52:26 10° NNE
Helios 1A Rocket 3.7 18:44:58 10° S 18:49:01 54° W 18:53:03 10° NNW
FALCON 9 DEB 3.1 18:47:17 10° WSW 18:50:17 57° S 18:50:17 57° S
Cosmos 2278 Rocket 4.5 18:49:18 10° NNW 18:50:56 11° N 18:52:35 10° NNE
Cosmos 1689 Rocket 2.9 18:48:40 10° N 18:51:30 48° WNW 18:54:18 10° SSW
ATLAS 5 CENTAUR R/B 3.5 18:48:36 10° WNW 18:52:22 24° N 18:55:00 16° NNE
Meteor 2-15 Rocket 4.4 18:47:59 10° S 18:54:01 63° E 19:00:06 10° NNE
SKYMED 2 4.1 18:51:00 10° N 18:55:18 60° WNW 18:59:35 10° SSW
Okean-O 3.3 18:52:28 10° S 18:56:49 55° W 19:01:12 10° NNW
Cosmos 2151 3.7 18:52:58 10° N 18:56:04 36° NE 18:56:04 36° NE
Cosmos 1992 Rocket 4.0 18:52:15 10° S 18:57:19 55° ESE 18:59:48 29° NE
ARGOS 3.1 18:54:41 18° SSE 18:58:45 67° ENE 19:04:10 10° N
SL-08 RB Rocket 3.9 19:00:38 48° ENE 19:00:38 48° ENE 19:04:54 10° N
Cosmos 1400 Rocket 3.8 18:57:38 10° SSW 19:01:37 48° WNW 19:05:35 10° N
Cosmos 2369 3.9 18:56:47 10° S 19:02:12 46° ESE 19:03:11 42° E
PSLV R/B 4.5 18:58:39 10° N 19:02:47 60° WNW 19:06:52 10° SSW
Cosmos 1844 Rocket 4.3 19:00:57 10° NNW 19:04:55 19° NNE 19:05:18 19° NE
Cosmos 2058 3.3 19:01:01 10° NNW 19:05:04 61° W 19:09:06 10° S
Cosmos 1892 4.0 19:01:26 10° NNW 19:05:08 42° W 19:08:48 10° SSW
Cosmos 1656 3.6 18:59:39 10° SSW 19:05:15 90° NNW 19:10:04 15° NNE
CZ-4 R/B 2.4 19:01:57 10° S 19:05:40 44° W 19:09:24 10° NNW
Meteor 2-15 4.4 19:00:17 10° S 19:06:27 89° W 19:12:37 10° N
H-2A R/B 2.2 19:02:06 10° SSE 19:07:32 84° WSW 19:13:03 10° NNW
Ariane Rocket 3.3 19:07:51 44° ENE 19:07:51 44° ENE 19:12:34 10° N
Geosat 4.0 19:06:43 47° ENE 19:07:48 57° ESE 19:12:44 10° SSW
Cosmos 1408 3.2 19:05:08 10° NNW 19:08:43 54° W 19:11:40 14° S
Cosmos 1745 Rocket 4.2 19:02:29 10° NNW 19:08:46 72° W 19:15:04 10° S
GEOS 3 Rocket 3.9 19:05:41 25° SSE 19:08:48 69° SW 19:14:13 10° NW
Cosmos 220 Rocket 3.9 19:06:14 10° SSW 19:10:36 73° ESE 19:10:52 70° ENE
Cosmos 2227 Rocket 3.4 19:05:27 10° NW 19:10:44 41° WSW 19:15:59 10° S
Cosmos 2263 Rocket 2.4 19:11:15 10° NNW 19:16:50 51° NE 19:17:16 50° ENE
CSL-04 Rocket 3.9 19:11:19 10° S 19:16:51 72° WSW 19:22:24 10° NNW
Timation 1 Rocket 4.3 19:11:45 10° NNW 19:17:48 84° WSW 19:20:34 34° SSE
Cosmos 1346 Rocket 4.4 19:20:56 10° NNW 19:24:36 35° W 19:28:15 10° SSW
Meteor 2-1 Rocket 4.2 19:19:43 10° SSW 19:25:14 80° WNW 19:30:49 10° N
SL-4 R/B 2.6 19:21:47 10° W 19:24:38 48° WSW 19:24:38 48° WSW
Cosmos 1825 2.8 19:22:29 10° NNW 19:26:13 54° W 19:26:28 53° WSW
SeaSat 1 2.5 19:26:16 48° S 19:27:36 74° WSW 19:32:34 10° NW
CZ-4C R/B 3.1 19:21:30 10° NW 19:27:58 50° NNE 19:29:36 44° ENE
NOSS 3-4 (A) 3.7 19:22:32 10° NW 19:29:24 82° NE 19:31:39 49° SE
USA 305 3.9 19:25:24 10° WNW 19:29:25 39° SW 19:29:36 39° SSW
NOSS 3-4 (C) 3.7 19:22:39 10° NW 19:29:30 82° NE 19:31:43 49° ESE
Cosmos 1697 Rocket 2.5 19:24:29 10° SSW 19:30:06 80° ESE 19:31:25 54° NE
Cosmos 2184 Rocket 4.4 19:25:47 10° N 19:31:04 44° NE 19:31:04 44° NE
Cosmos 1315 Rocket 3.4 19:28:53 10° SSW 19:32:10 52° WSW 19:32:10 52° WSW
USA 306 4.0 19:31:50 10° WNW 19:35:44 36° SW 19:35:44 36° SW
Cosmos 44 4.4 19:31:31 10° WSW 19:35:53 39° NW 19:37:30 30° N
DEBRIS 4.2 19:20:12 10° WSW 19:36:01 58° SSE 19:36:49 54° SE
Cosmos 1709 Rocket 4.2 19:32:11 10° NNW 19:38:33 75° W 19:44:29 12° S
USA 215 3.1 19:39:00 60° ESE 19:40:23 85° NNE 19:46:58 10° WNW
NOSS 3-3 (A) 3.8 19:35:09 10° SW 19:41:03 76° SE 19:41:47 68° ENE
NOSS 3-3 (C) 3.8 19:35:15 10° SW 19:41:11 76° SE 19:41:53 68° E
SJ 16-02 3.5 19:39:49 10° N 19:41:07 17° N 19:41:07 17° N
MOS 1 Rocket 3.8 19:41:43 10° N 19:46:15 58° WNW 19:51:03 10° SSW
ATLAS 2AS CENTAUR R/B 2.7 19:43:57 10° NW 19:51:37 86° NE 19:52:43 68° SE
Cosmos 1777 Rocket 4.1 19:46:24 10° NNW 19:51:06 72° NW 19:51:06 72° NW
Cosmos 2074 Rocket 4.2 19:45:57 10° N 19:51:03 54° NNE 19:51:03 54° NNE
Cosmos 1980 Rocket 3.8 19:47:13 10° SSW 19:49:11 22° SSW 19:49:11 22° SSW
IRS-1A Rocket 4.1 19:53:27 85° W 19:53:27 85° W 19:58:59 10° NNW
Meteor 2-17 Rocket 4.3 19:49:14 10° N 19:55:02 80° NNE 19:55:02 80° NNE
COSMOS 2455 4.2 19:50:24 10° NNW 19:55:08 27° NNE 19:55:08 27° NNE
Resurs 01 Rocket 4.1 20:02:02 13° N 20:02:02 13° N 20:02:35 10° N
MOS 1 4.3 20:00:46 79° NW 20:00:46 79° NW 20:06:10 10° NNW
Cosmos 2315 Rocket 4.0 19:55:15 10° SSW 20:01:27 77° WNW 20:07:42 10° N
MetOp-A 4.4 20:03:23 64° NW 20:03:23 64° NW 20:07:58 10° NNW
Lacrosse 5 2.6 19:58:51 10° WNW 20:02:41 48° NW 20:02:41 48° NW
Cosmos 2227 4.4 19:58:43 10° NNW 20:03:41 69° NW 20:03:41 69° NW
Meteor 2-3 Rocket 4.1 20:11:58 10° NNW 20:17:03 61° WNW 20:17:03 61° WNW
Cosmos 2278 Rocket 4.3 20:33:25 10° NNW 20:35:28 17° N 20:35:28 17° N
ATLAS 5 CENTAUR R/B 3.9 20:34:07 10° NW 20:36:32 22° NNW 20:36:32 22° NNW
Cosmos 1844 Rocket 4.4 20:44:26 10° NNW 20:46:58 26° NNW 20:46:58 26° NNW
Cosmos 2263 Rocket 3.9 20:55:28 10° NW 20:58:57 30° WNW 20:58:57 30° WNW
CZ-4C R/B 3.6 21:09:58 10° NW 21:14:47 47° WNW 21:14:47 47° WNW
ATLAS 2AS CENTAUR R/B 4.4 21:35:42 10° WNW 21:40:09 26° W 21:40:09 26° W
